���t,�O�C���x,�����t���O,�O�C���Ύ��x,�����t���O,���ԋ�C���x,�����t���O,���ԑ��Ύ��x,�����t���O,�g�C������,�����t���O,�L�b�`�����x,�����t���O,��󒲎����x,�����t���O
2005/1/1 0:00,5.3,0,44,0,19.7,0,48.8,0,13.6,0,19.4,0,,2
2005/1/1 0:15,5.3,0,45,0,19.7,0,48.7,0,13.6,0,19.4,0,,2
2005/1/1 0:30,5.1,0,47,0,19.7,0,48.7,0,13.6,0,19.4,0,,2
2005/1/1 0:45,5.1,0,49,0,19.7,0,48.8,0,13.6,0,19.4,0,,2
2005/1/1 1:00,5.1,0,50,0,19.7,0,48.8,0,13.6,0,19.4,0,,2
2005/1/1 1:15,5.1,0,50,0,19.7,0,48.8,0,13.7,0,19.4,0,,2
2005/1/1 1:30,5.2,0,50,0,19.7,0,48.7,0,13.7,0,19.4,0,,2
2005/1/1 1:45,5.3,0,51,0,19.7,0,48.8,0,13.7,0,19.4,0,,2
2005/1/1 2:00,5.3,0,50,0,19.7,0,48.4,0,13.7,0,19.4,0,,2
2005/1/1 2:15,4.9,0,52,0,19.7,0,48.4,0,13.7,0,19.4,0,,2
2005/1/1 2:30,5.2,0,50,0,19.7,0,48.5,0,13.7,0,19.4,0,,2
2005/1/1 2:45,5.4,0,49,0,19.7,0,48.7,0,13.8,0,19.4,0,,2
2005/1/1 3:00,5.2,0,52,0,19.7,0,48.7,0,13.8,0,19.4,0,,2
2005/1/1 3:15,4.9,0,51,0,19.7,0,48.8,0,13.8,0,19.4,0,,2
2005/1/1 3:30,5,0,50,0,19.6,0,48.8,0,13.8,0,19.4,0,,2
2005/1/1 3:45,5.3,0,54,0,19.6,0,48.5,0,13.8,0,19.4,0,,2
2005/1/1 4:00,5,0,59,0,19.5,0,48.7,0,13.8,0,19.4,0,,2
2005/1/1 4:15,4.8,0,61,0,19.4,0,48.8,0,13.8,0,19.4,0,,2
2005/1/1 4:30,5,0,60,0,19.4,0,48.7,0,13.9,0,19.4,0,,2
2005/1/1 4:45,5.4,0,54,0,19.4,0,48.6,0,12.9,0,19.3,0,,2
2005/1/1 5:00,5.3,0,57,0,19.4,0,48.7,0,12.9,0,19.1,0,,2
2005/1/1 5:15,5.5,0,59,0,19.3,0,48.8,0,12.9,0,19.1,0,,2
2005/1/1 5:30,5.5,0,53,0,19.3,0,48.7,0,12.9,0,19.2,0,,2
2005/1/1 5:45,5.7,0,46,0,19.3,0,48.7,0,12.9,0,19.2,0,,2
2005/1/1 6:00,5.7,0,43,0,19.2,0,48.7,0,12.9,0,19.1,0,,2
2005/1/1 6:15,5.6,0,50,0,19.3,0,48.7,0,13,0,19.1,0,,2
2005/1/1 6:30,5.3,0,53,0,19.2,0,48.7,0,13,0,19.1,0,,2
2005/1/1 6:45,5.4,0,53,0,19.2,0,48.7,0,13,0,19.1,0,,2
2005/1/1 7:00,5.6,0,52,0,19.2,0,48.7,0,13,0,19.1,0,,2
2005/1/1 7:15,5.6,0,51,0,19.2,0,48.5,0,13,0,19.1,0,,2
2005/1/1 7:30,5.6,0,53,0,19.2,0,48.6,0,13,0,19.1,0,,2
2005/1/1 7:45,5.8,0,53,0,19.1,0,48.7,0,13.1,0,19,0,,2
2005/1/1 8:00,5.8,0,53,0,19.1,0,48.6,0,13.1,0,19,0,,2
2005/1/1 8:15,5.8,0,52,0,19.1,0,48.6,0,13.1,0,19,0,,2
2005/1/1 8:30,5.8,0,52,0,19.1,0,48.7,0,13.1,0,19,0,,2
2005/1/1 8:45,5.8,0,52,0,19,0,48.7,0,13.1,0,19,0,,2
2005/1/1 9:00,5.8,0,56,0,19.1,0,48.7,0,13.1,0,19,0,,2
2005/1/1 9:15,5.6,0,59,0,19,0,48.7,0,13.1,0,19,0,,2
2005/1/1 9:30,5.7,0,57,0,19,0,48.8,0,13.2,0,18.9,0,,2
2005/1/1 9:45,5.8,0,54,0,19,0,48.7,0,13.2,0,18.9,0,,2
2005/1/1 10:00,5.8,0,55,0,19,0,48.6,0,13.2,0,18.9,0,,2
2005/1/1 10:15,5.8,0,53,0,19,0,48.7,0,13.2,0,18.9,0,,2
2005/1/1 10:30,5.8,0,48,0,19,0,48.7,0,13.2,0,18.9,0,,2
2005/1/1 10:45,6,0,47,0,19,0,48.6,0,13.2,0,18.9,0,,2
2005/1/1 11:00,6.1,0,48,0,18.9,0,48.6,0,13.2,0,18.9,0,,2
2005/1/1 11:15,6,0,46,0,18.9,0,48.6,0,13.2,0,18.9,0,,2
2005/1/1 11:30,6.1,0,47,0,18.9,0,48.5,0,13.2,0,18.9,0,,2
2005/1/1 11:45,6.3,0,45,0,18.9,0,48.5,0,13.3,0,18.9,0,,2
2005/1/1 12:00,6,0,44,0,19,0,50.2,0,13.3,0,18.8,0,,2
2005/1/1 12:15,6.1,0,42,0,19.3,0,51.6,0,13.3,0,18.8,0,,2
2005/1/1 12:30,6.5,0,42,0,19.4,0,51.5,0,12.7,0,18.9,0,,2
2005/1/1 12:45,6.3,0,42,0,19.5,0,51.5,0,12.7,0,19.5,0,,2
2005/1/1 13:00,6.3,0,42,0,20,0,51.1,0,12.8,0,20,0,,2
2005/1/1 13:15,6.3,0,40,0,19.9,0,51.1,0,12.5,0,19.9,0,,2
2005/1/1 13:30,6.3,0,40,0,19.8,0,50.9,0,12.5,0,20.2,0,,2
2005/1/1 13:45,6.1,0,40,0,19.6,0,51,0,12.5,0,20.3,0,,2
2005/1/1 14:00,6.1,0,38,0,19.8,0,50.6,0,12.5,0,20.1,0,,2
2005/1/1 14:15,6.1,0,38,0,19.9,0,50.3,0,12.6,0,19.9,0,,2
2005/1/1 14:30,6.2,0,38,0,19.9,0,50.2,0,12.6,0,19.8,0,,2
2005/1/1 14:45,6.3,0,39,0,19.7,0,50.4,0,12.6,0,19.7,0,,2
2005/1/1 15:00,6.1,0,37,0,19.5,0,50.3,0,12.6,0,19.7,0,,2
2005/1/1 15:15,6,0,36,0,19.5,0,50.2,0,12.6,0,19.8,0,,2
2005/1/1 15:30,6,0,36,0,19.4,0,50.1,0,12.6,0,19.7,0,,2
2005/1/1 15:45,6.1,0,40,0,19.4,0,50,0,12.7,0,19.6,0,,2
2005/1/1 16:00,5.8,0,38,0,19.3,0,50,0,12.7,0,19.5,0,,2
2005/1/1 16:15,5.8,0,40,0,19.3,0,49.9,0,12.7,0,19.4,0,,2
2005/1/1 16:30,5.8,0,41,0,19.3,0,50,0,12.7,0,19.3,0,,2
2005/1/1 16:45,5.8,0,39,0,19.3,0,50,0,12.7,0,19.2,0,,2
2005/1/1 17:00,5.8,0,42,0,19.2,0,50.1,0,12.8,0,19.2,0,,2
2005/1/1 17:15,5.8,0,39,0,19.2,0,50,0,12.8,0,19.2,0,,2
2005/1/1 17:30,5.9,0,40,0,19.2,0,50.1,0,12.8,0,19.1,0,,2
2005/1/1 17:45,5.9,0,42,0,19.2,0,49.8,0,12.8,0,19.1,0,,2
2005/1/1 18:00,5.8,0,39,0,19.1,0,49.8,0,12.8,0,19,0,,2
2005/1/1 18:15,5.9,0,38,0,19.1,0,49.8,0,12.8,0,19,0,,2
2005/1/1 18:30,5.9,0,39,0,19.1,0,49.4,0,12.9,0,19,0,,2
2005/1/1 18:45,5.8,0,41,0,19,0,49.5,0,12.9,0,19,0,,2
2005/1/1 19:00,5.9,0,42,0,19,0,49.6,0,12.8,0,19,0,,2
2005/1/1 19:15,5.9,0,40,0,19.1,0,49.6,0,12.8,0,18.9,0,,2
2005/1/1 19:30,6.1,0,40,0,19,0,49.7,0,12.8,0,18.9,0,,2
2005/1/1 19:45,6.2,0,42,0,19,0,49.7,0,12.8,0,18.9,0,,2
2005/1/1 20:00,6,0,42,0,18.9,0,49.7,0,12.8,0,18.9,0,,2
2005/1/1 20:15,6.1,0,40,0,18.9,0,49.7,0,12.9,0,18.9,0,,2
2005/1/1 20:30,6,0,38,0,18.9,0,49.7,0,12.9,0,18.9,0,,2
2005/1/1 20:45,6,0,38,0,18.9,0,49.5,0,12.9,0,18.8,0,,2
2005/1/1 21:00,5.9,0,39,0,18.9,0,49.6,0,12.9,0,18.7,0,,2
2005/1/1 21:15,6.1,0,40,0,18.9,0,49.9,0,12.9,0,18.7,0,,2
2005/1/1 21:30,6.1,0,39,0,18.9,0,50.9,0,12.9,0,18.7,0,,2
2005/1/1 21:45,6.2,0,37,0,19,0,51.2,0,12.9,0,18.8,0,,2
2005/1/1 22:00,6.2,0,37,0,19,0,51.4,0,12.6,0,18.8,0,,2
2005/1/1 22:15,6.4,0,37,0,19.1,0,52.3,0,12.7,0,19.4,0,,2
2005/1/1 22:30,6.3,0,41,0,19,0,52.3,0,12.7,0,19.4,0,,2
2005/1/1 22:45,6.3,0,42,0,19,0,52.4,0,12.7,0,19.4,0,,2
2005/1/1 23:00,6.4,0,42,0,19,0,52.4,0,12.7,0,20,0,,2
2005/1/1 23:15,6.2,0,42,0,19,0,52.4,0,12.7,0,19.8,0,,2
2005/1/1 23:30,6,0,46,0,19,0,52.3,0,12.8,0,19.6,0,,2
2005/1/1 23:45,5.8,0,46,0,19,0,52.2,0,12.8,0,19.4,0,,2
2005/1/2 0:00,5.9,0,46,0,19,0,52.1,0,12.8,0,19.3,0,,2
2005/1/2 0:15,6,0,48,0,19,0,52,0,12.8,0,19.2,0,,2
2005/1/2 0:30,5.9,0,49,0,19,0,52.1,0,12.8,0,19.2,0,,2
2005/1/2 0:45,5.6,0,50,0,19,0,51.8,0,12.8,0,19.2,0,,2
2005/1/2 1:00,5.4,0,51,0,19,0,51.7,0,12.9,0,19.2,0,,2
2005/1/2 1:15,5.3,0,52,0,19,0,51.8,0,12.9,0,19.1,0,,2
2005/1/2 1:30,5.2,0,53,0,19,0,51.5,0,12.9,0,19.1,0,,2
2005/1/2 1:45,5.4,0,53,0,19,0,51.3,0,12.9,0,19.1,0,,2
2005/1/2 2:00,5,0,54,0,19,0,51.4,0,12.9,0,19.1,0,,2
2005/1/2 2:15,5.3,0,53,0,19,0,51.4,0,13,0,19.1,0,,2
2005/1/2 2:30,5.2,0,53,0,18.9,0,51.2,0,13,0,19.1,0,,2
2005/1/2 2:45,5.1,0,53,0,18.9,0,50.9,0,13,0,19.1,0,,2
2005/1/2 3:00,5.1,0,54,0,18.8,0,50.9,0,13,0,19.1,0,,2
2005/1/2 3:15,4.8,0,55,0,18.6,0,50.8,0,12.2,0,19.1,0,,2
2005/1/2 3:30,5.3,0,54,0,18.6,0,50.8,0,12.3,0,19.1,0,,2
2005/1/2 3:45,5,0,55,0,18.5,0,50.7,0,12.3,0,18.9,0,,2
2005/1/2 4:00,5,0,55,0,18.4,0,50.6,0,12.3,0,18.8,0,,2
2005/1/2 4:15,5,0,55,0,18.4,0,50.6,0,12.3,0,18.7,0,,2
2005/1/2 4:30,5.2,0,55,0,18.3,0,50.5,0,12.3,0,18.6,0,,2
2005/1/2 4:45,5,0,55,0,18.2,0,50.4,0,12.4,0,18.5,0,,2
2005/1/2 5:00,4.4,0,57,0,18.2,0,50.3,0,12.4,0,18.4,0,,2
2005/1/2 5:15,4.7,0,57,0,18.2,0,50.2,0,12.4,0,18.4,0,,2
2005/1/2 5:30,4.8,0,57,0,18.1,0,50.1,0,12.5,0,18.3,0,,2
2005/1/2 5:45,4.8,0,57,0,18,0,50,0,12.5,0,18.2,0,,2
2005/1/2 6:00,4.8,0,56,0,18,0,50,0,12.5,0,18.2,0,,2
2005/1/2 6:15,4.4,0,57,0,18,0,49.9,0,12.5,0,18.1,0,,2
2005/1/2 6:30,4.4,0,58,0,17.9,0,49.8,0,12.5,0,18.1,0,,2
2005/1/2 6:45,4.6,0,57,0,17.9,0,49.9,0,12.6,0,18,0,,2
2005/1/2 7:00,4.4,0,58,0,17.9,0,49.9,0,12.6,0,18,0,,2
2005/1/2 7:15,4.4,0,59,0,17.8,0,49.8,0,12.6,0,18,0,,2
2005/1/2 7:30,4.6,0,60,0,17.8,0,49.7,0,12.6,0,17.9,0,,2
2005/1/2 7:45,4.4,0,60,0,17.8,0,49.8,0,12.7,0,17.9,0,,2
2005/1/2 8:00,4.4,0,61,0,17.8,0,49.8,0,12.7,0,17.9,0,,2
2005/1/2 8:15,4.7,0,60,0,17.7,0,49.7,0,12.7,0,17.8,0,,2
2005/1/2 8:30,4.9,0,59,0,17.7,0,49.8,0,12.7,0,17.8,0,,2
2005/1/2 8:45,4.8,0,58,0,17.7,0,49.7,0,12.7,0,17.8,0,,2
2005/1/2 9:00,4.8,0,58,0,17.6,0,49.7,0,12.8,0,17.7,0,,2
2005/1/2 9:15,5.2,0,58,0,17.6,0,49.7,0,12.8,0,17.7,0,,2
2005/1/2 9:30,5.1,0,58,0,17.6,0,49.7,0,12.8,0,17.7,0,,2
2005/1/2 9:45,5.3,0,57,0,17.6,0,49.7,0,12.8,0,17.7,0,,2
2005/1/2 10:00,5.6,0,56,0,17.5,0,49.7,0,12.8,0,17.6,0,,2
2005/1/2 10:15,5.7,0,56,0,17.5,0,49.8,0,12.9,0,17.6,0,,2
2005/1/2 10:30,5.8,0,56,0,17.5,0,49.8,0,12.9,0,17.6,0,,2
2005/1/2 10:45,5.9,0,56,0,17.5,0,49.7,0,12.9,0,17.5,0,,2
2005/1/2 11:00,5.9,0,56,0,17.5,0,49.7,0,12.9,0,17.5,0,,2
2005/1/2 11:15,6.2,0,55,0,17.5,0,49.7,0,12.9,0,17.6,0,,2
2005/1/2 11:30,6.2,0,55,0,17.4,0,49.7,0,12.9,0,17.5,0,,2
2005/1/2 11:45,6.5,0,55,0,17.4,0,49.8,0,13,0,17.5,0,,2
2005/1/2 12:00,6.8,0,55,0,17.4,0,49.8,0,13,0,17.5,0,,2
2005/1/2 12:15,7,0,54,0,17.4,0,49.7,0,13,0,17.5,0,,2
2005/1/2 12:30,7,0,55,0,17.3,0,49.9,0,13,0,17.4,0,,2
2005/1/2 12:45,7.1,0,55,0,17.3,0,50.5,0,13,0,17.4,0,,2
2005/1/2 13:00,7.1,0,55,0,17.3,0,51,0,13,0,17.4,0,,2
2005/1/2 13:15,7.2,0,55,0,17.2,0,51.5,0,13.1,0,17.4,0,,2
2005/1/2 13:30,7.4,0,54,0,17.2,0,51.6,0,12.4,0,17.4,0,,2
2005/1/2 13:45,7.4,0,54,0,17.2,0,51.8,0,12.4,0,17.4,0,,2
2005/1/2 14:00,7.7,0,54,0,17.2,0,51.8,0,12.5,0,17.3,0,,2
2005/1/2 14:15,7.8,0,53,0,17.2,0,52,0,12.5,0,17.3,0,,2
2005/1/2 14:30,8,0,52,0,17.5,0,53.9,0,12.5,0,17.3,0,,2
2005/1/2 14:45,7.9,0,52,0,17.7,0,54.6,0,12.5,0,17.3,0,,2
2005/1/2 15:00,7.9,0,52,0,17.7,0,54.8,0,12.6,0,17.3,0,,2
2005/1/2 15:15,8,0,53,0,17.7,0,54.9,0,12.6,0,18.2,0,,2
2005/1/2 15:30,8,0,54,0,17.7,0,53.9,0,12.6,0,18.4,0,,2
2005/1/2 15:45,8,0,53,0,17.6,0,53.6,0,12.6,0,18.3,0,,2
2005/1/2 16:00,8.3,0,52,0,17.6,0,53.5,0,12.7,0,18.1,0,,2
2005/1/2 16:15,8,0,53,0,17.7,0,53.2,0,12.7,0,18.1,0,,2
2005/1/2 16:30,8.2,0,53,0,17.7,0,53.2,0,12.7,0,17.9,0,,2
2005/1/2 16:45,11.9,0,47,0,17.5,0,53.3,0,12.4,0,17.8,0,,2
2005/1/2 17:00,11,0,44,0,17.4,0,52.6,0,12.4,0,17.8,0,,2
2005/1/2 17:15,8.5,0,51,0,16.7,0,43.3,0,12.4,0,17.9,0,,2
2005/1/2 17:30,8.3,0,54,0,16.3,0,41.4,0,12.4,0,17.9,0,,2
2005/1/2 17:45,7.9,0,55,0,16.6,0,43.7,0,12.5,0,17.9,0,,2
2005/1/2 18:00,8.1,0,56,0,16.9,0,47.3,0,12.5,0,17.6,0,,2
2005/1/2 18:15,7.7,0,56,0,17.1,0,49.1,0,12.5,0,17.2,0,,2
2005/1/2 18:30,7.7,0,57,0,17.1,0,50.3,0,12.5,0,17.2,0,,2
2005/1/2 18:45,7.6,0,59,0,17.2,0,50.9,0,12.5,0,17.8,0,,2
2005/1/2 19:00,7.2,0,59,0,17.3,0,52.7,0,12.5,0,18.1,0,,2
2005/1/2 19:15,7.4,0,59,0,17.4,0,54.2,0,12.5,0,18.2,0,,2
2005/1/2 19:30,7.4,0,59,0,17.5,0,55.6,0,12.6,0,18.3,0,,2
2005/1/2 19:45,7.4,0,59,0,17.8,0,62.9,0,12.6,0,18.9,0,,2
2005/1/2 20:00,7.4,0,59,0,17.8,0,63,0,12.6,0,19.5,0,,2
2005/1/2 20:15,7.4,0,59,0,17.9,0,65,0,12.6,0,19.9,0,,2
2005/1/2 20:30,7.5,0,59,0,18,0,65,0,12.6,0,21,0,,2
2005/1/2 20:45,7.5,0,60,0,18.1,0,65.1,0,12.7,0,20.8,0,,2
2005/1/2 21:00,7.5,0,59,0,18,0,63.8,0,12.6,0,20.7,0,,2
2005/1/2 21:15,7.5,0,59,0,18.1,0,63.5,0,12.6,0,20.1,0,,2
2005/1/2 21:30,7.5,0,60,0,18.1,0,63.3,0,12.5,0,19.7,0,,2
2005/1/2 21:45,7.5,0,60,0,18.2,0,63.5,0,12.5,0,19.6,0,,2
2005/1/2 22:00,7.5,0,61,0,18.2,0,64.3,0,12.5,0,19.4,0,,2
2005/1/2 22:15,7.7,0,60,0,18.2,0,62.9,0,12.3,0,19.2,0,,2
2005/1/2 22:30,7.7,0,60,0,17.8,0,59.2,0,12.4,0,19.4,0,,2
2005/1/2 22:45,7.7,0,59,0,17.8,0,59.6,0,12.4,0,19.4,0,,2
2005/1/2 23:00,7.7,0,59,0,17.8,0,60.1,0,12.4,0,19.3,0,,2
2005/1/2 23:15,7.4,0,59,0,18,0,61.4,0,12.2,0,19,0,,2
2005/1/2 23:30,7.5,0,60,0,18.1,0,61.2,0,12.2,0,19,0,,2
2005/1/2 23:45,7.4,0,59,0,18,0,62.9,0,12.2,0,19,0,,2
2005/1/3 0:00,7.1,0,60,0,17.9,0,63.5,0,12.3,0,19.1,0,,2
2005/1/3 0:15,7.1,0,60,0,17.8,0,61.8,0,12.3,0,19.5,0,,2
2005/1/3 0:30,7.1,0,60,0,17.9,0,64.3,0,12.3,0,19.6,0,,2
2005/1/3 0:45,7.1,0,60,0,17.8,0,63.9,0,12.3,0,19.6,0,,2
2005/1/3 1:00,6.8,0,62,0,17.8,0,64.2,0,12.2,0,19.7,0,,2
2005/1/3 1:15,6.5,0,62,0,17.9,0,63.9,0,12.2,0,19.8,0,,2
2005/1/3 1:30,6.4,0,63,0,17.9,0,63.5,0,12.3,0,19.6,0,,2
2005/1/3 1:45,6.5,0,63,0,17.9,0,63.3,0,12.3,0,19.3,0,,2
2005/1/3 2:00,6.5,0,63,0,17.8,0,63.1,0,12.3,0,19.2,0,,2
2005/1/3 2:15,6.5,0,62,0,17.8,0,63,0,12.3,0,19.1,0,,2
2005/1/3 2:30,6.5,0,62,0,17.8,0,62.2,0,12.4,0,19.1,0,,2
2005/1/3 2:45,6.6,0,61,0,17.6,0,60.6,0,12.4,0,18.9,0,,2
2005/1/3 3:00,6.5,0,62,0,17.5,0,60.5,0,12.4,0,18.9,0,,2
2005/1/3 3:15,6.5,0,62,0,17.4,0,60.5,0,12.4,0,18.8,0,,2
2005/1/3 3:30,6.4,0,63,0,17.3,0,60.5,0,12.5,0,18.6,0,,2
2005/1/3 3:45,6.3,0,63,0,17.3,0,60.5,0,12.5,0,18.5,0,,2
2005/1/3 4:00,6.5,0,63,0,17.4,0,61.3,0,12.5,0,18.3,0,,2
2005/1/3 4:15,6.6,0,63,0,17.6,0,62.1,0,12.5,0,18.2,0,,2
2005/1/3 4:30,6.8,0,63,0,17.6,0,63,0,12.6,0,18.1,0,,2
2005/1/3 4:45,6.8,0,62,0,17.6,0,62.7,0,12.6,0,18.1,0,,2
2005/1/3 5:00,6.9,0,63,0,17.6,0,62.6,0,12.6,0,18.4,0,,2
2005/1/3 5:15,7.1,0,62,0,17.3,0,60.3,0,12.7,0,18.3,0,,2
2005/1/3 5:30,7,0,63,0,17.3,0,60.4,0,12.7,0,18.3,0,,2
2005/1/3 5:45,7,0,63,0,17.3,0,59.8,0,12.8,0,18.2,0,,2
2005/1/3 6:00,7,0,64,0,17.2,0,59.5,0,13,0,17.9,0,,2
2005/1/3 6:15,6.9,0,64,0,17.2,0,59.3,0,13.1,0,17.8,0,,2
2005/1/3 6:30,6.9,0,66,0,17.1,0,59.2,0,13.1,0,17.8,0,,2
2005/1/3 6:45,6.8,0,66,0,17.1,0,59,0,13.1,0,17.8,0,,2
2005/1/3 7:00,7.1,0,67,0,17,0,58.7,0,13.2,0,17.7,0,,2
2005/1/3 7:15,7.2,0,67,0,17,0,58.6,0,13.2,0,17.6,0,,2
2005/1/3 7:30,7.2,0,66,0,16.9,0,58.6,0,13.2,0,17.6,0,,2
2005/1/3 7:45,7.4,0,65,0,16.9,0,58.4,0,13.2,0,17.6,0,,2
2005/1/3 8:00,7.3,0,65,0,16.9,0,58.1,0,13.2,0,17.5,0,,2
2005/1/3 8:15,7.4,0,65,0,16.9,0,58,0,13.3,0,17.4,0,,2
2005/1/3 8:30,7.3,0,65,0,16.8,0,58,0,13.3,0,17.3,0,,2
2005/1/3 8:45,7.6,0,65,0,16.8,0,57.8,0,13.3,0,17.3,0,,2
2005/1/3 9:00,7.4,0,66,0,16.8,0,57.5,0,13.3,0,17.3,0,,2
2005/1/3 9:15,7.7,0,67,0,16.8,0,57.4,0,13.3,0,17.2,0,,2
2005/1/3 9:30,8.1,0,68,0,16.7,0,57.5,0,13.4,0,17.2,0,,2
2005/1/3 9:45,8.2,0,69,0,16.7,0,57.4,0,13.4,0,17.2,0,,2
2005/1/3 10:00,8.4,0,69,0,16.7,0,57.3,0,13.4,0,17.2,0,,2
2005/1/3 10:15,9,0,69,0,16.7,0,57.2,0,13.4,0,17.1,0,,2
2005/1/3 10:30,9.1,0,68,0,16.7,0,57.2,0,13.4,0,17.1,0,,2
2005/1/3 10:45,9.3,0,68,0,16.7,0,57.6,0,13.4,0,17.1,0,,2
2005/1/3 11:00,9.4,0,69,0,16.9,0,60,0,13.4,0,17.1,0,,2
2005/1/3 11:15,9.6,0,69,0,17.3,0,63.3,0,12.7,0,17,0,,2
2005/1/3 11:30,9.7,0,69,0,17.3,0,63.5,0,12,0,17,0,,2
2005/1/3 11:45,10,0,69,0,17.2,0,62.8,0,12,0,17.4,0,,2
2005/1/3 12:00,10.3,0,68,0,17.1,0,62.4,0,12,0,18.7,0,,2
2005/1/3 12:15,10.7,0,68,0,17.5,0,62.4,0,12.1,0,18.6,0,,2
2005/1/3 12:30,10.7,0,68,0,17.7,0,62,0,12.1,0,18.3,0,,2
2005/1/3 12:45,10.8,0,69,0,17.6,0,62.6,0,12.1,0,18,0,,2
2005/1/3 13:00,10.6,0,71,0,17.7,0,64.9,0,12.1,0,17.9,0,,2
2005/1/3 13:15,11,0,73,0,17.8,0,67.9,0,12.1,0,18,0,,2
2005/1/3 13:30,11.1,0,72,0,18,0,71.9,0,12.2,0,18.2,0,,2
2005/1/3 13:45,11.2,0,71,0,18.4,0,72.1,0,12,0,19.2,0,,2
2005/1/3 14:00,11.3,0,70,0,18.4,0,72.2,0,12,0,19.7,0,,2
2005/1/3 14:15,11.3,0,71,0,18.1,0,68.5,0,12.1,0,20.8,0,,2
2005/1/3 14:30,11.5,0,70,0,18,0,66.8,0,12.1,0,21.2,0,,2
2005/1/3 14:45,11.4,0,70,0,18.1,0,67,0,12.1,0,21.3,0,,2
2005/1/3 15:00,11.5,0,74,0,18,0,67,0,12.1,0,20.9,0,,2
2005/1/3 15:15,11.5,0,75,0,18,0,67.3,0,12.2,0,20.6,0,,2
2005/1/3 15:30,11.4,0,75,0,17.6,0,65,0,12.2,0,20.3,0,,2
2005/1/3 15:45,11.4,0,71,0,17.7,0,65.2,0,12.2,0,20.2,0,,2
2005/1/3 16:00,11.5,0,70,0,17.8,0,66.2,0,12.3,0,20,0,,2
2005/1/3 16:15,11.4,0,71,0,17.8,0,66.5,0,12.2,0,19.5,0,,2
2005/1/3 16:30,11.2,0,73,0,17.8,0,66.8,0,12.2,0,19.5,0,,2
2005/1/3 16:45,11.2,0,74,0,17.9,0,68.5,0,12.2,0,19.5,0,,2
2005/1/3 17:00,11.1,0,73,0,17.8,0,68.6,0,12.3,0,19.4,0,,2
2005/1/3 17:15,11.1,0,72,0,17.7,0,68.7,0,12.2,0,19.6,0,,2
2005/1/3 17:30,11.2,0,71,0,17.8,0,68.9,0,12.3,0,19.7,0,,2
2005/1/3 17:45,11,0,72,0,17.7,0,68.1,0,12.3,0,19.7,0,,2
2005/1/3 18:00,10.9,0,71,0,17.6,0,67.3,0,12.3,0,19.7,0,,2
2005/1/3 18:15,10.8,0,71,0,17.5,0,67.4,0,12.3,0,19.6,0,,2
2005/1/3 18:30,10.8,0,70,0,17.6,0,68.3,0,12.4,0,19.4,0,,2
2005/1/3 18:45,10.6,0,71,0,17.6,0,68.8,0,12.4,0,19.5,0,,2
2005/1/3 19:00,10.5,0,72,0,17.6,0,68.6,0,12.4,0,19.1,0,,2
2005/1/3 19:15,10.5,0,71,0,17.5,0,68,0,12.6,0,19.3,0,,2
2005/1/3 19:30,10.4,0,72,0,17.5,0,67.5,0,12.4,0,19.4,0,,2
2005/1/3 19:45,10.1,0,74,0,17.6,0,68.3,0,12.5,0,19.4,0,,2
2005/1/3 20:00,10.2,0,75,0,17.7,0,70.7,0,12.5,0,19.3,0,,2
2005/1/3 20:15,10,0,75,0,17.9,0,74.3,0,12.5,0,19.2,0,,2
2005/1/3 20:30,10,0,77,0,17.8,0,73.6,0,12.5,0,20,0,,2
2005/1/3 20:45,10.2,0,76,0,17.8,0,72,0,12.5,0,20.8,0,,2
2005/1/3 21:00,10.5,0,69,0,18.2,0,74.7,0,12.2,0,21.2,0,,2
2005/1/3 21:15,10.8,0,67,0,18.5,0,77.2,0,12.2,0,20.7,0,,2
2005/1/3 21:30,10.9,0,66,0,18.8,0,80.3,0,12,0,20.5,0,,2
2005/1/3 21:45,11,0,66,0,18.8,0,81.6,0,11.7,0,21.2,0,,2
2005/1/3 22:00,11,0,67,0,18.6,0,79.7,0,11.8,0,21.4,0,,2
2005/1/3 22:15,11.2,0,66,0,18.3,0,77,0,11.8,0,22.2,0,,2
2005/1/3 22:30,11.3,0,67,0,18.2,0,75.4,0,11.8,0,21.7,0,,2
2005/1/3 22:45,11.4,0,70,0,18.2,0,74.4,0,11.9,0,21,0,,2
2005/1/3 23:00,11.4,0,71,0,18.2,0,74.6,0,11.9,0,20.3,0,,2
2005/1/3 23:15,11.3,0,74,0,18.1,0,74.5,0,11.9,0,19.8,0,,2
2005/1/3 23:30,11.2,0,76,0,18,0,74.5,0,12,0,19.6,0,,2
2005/1/3 23:45,11,0,78,0,17.8,0,74.6,0,12,0,19.5,0,,2
2005/1/4 0:00,11,0,80,0,17.9,0,74.4,0,12,0,19.7,0,,2
2005/1/4 0:15,11,0,81,0,17.8,0,73.3,0,12.1,0,19.5,0,,2
2005/1/4 0:30,11.1,0,87,0,17.8,0,73.1,0,12.1,0,19.4,0,,2
2005/1/4 0:45,11.1,0,91,0,17.7,0,72.5,0,12.2,0,19.2,0,,2
2005/1/4 1:00,11,0,93,0,17.7,0,72.5,0,12.2,0,19.2,0,,2
2005/1/4 1:15,10.9,0,94,0,17.7,0,72.2,0,12.1,0,19.2,0,,2
2005/1/4 1:30,10.6,0,89,0,17.8,0,74.3,0,12,0,19.2,0,,2
2005/1/4 1:45,10.6,0,84,0,18.1,0,76.5,0,12,0,19.3,0,,2
2005/1/4 2:00,10.6,0,79,0,18.1,0,75.5,0,12,0,19.2,0,,2
2005/1/4 2:15,10.7,0,70,0,18.1,0,74.5,0,12.1,0,19.6,0,,2
2005/1/4 2:30,10.6,0,67,0,18,0,73.8,0,12.1,0,19.9,0,,2
2005/1/4 2:45,10.6,0,65,0,17.9,0,72.7,0,12.1,0,19.9,0,,2
2005/1/4 3:00,10.4,0,64,0,17.8,0,71.9,0,12.2,0,19.9,0,,2
2005/1/4 3:15,10.5,0,63,0,17.6,0,71.7,0,12.2,0,19.7,0,,2
2005/1/4 3:30,10.4,0,63,0,17.6,0,71.3,0,12.4,0,19.5,0,,2
2005/1/4 3:45,10.4,0,61,0,17.6,0,70.7,0,12.5,0,19.3,0,,2
2005/1/4 4:00,10.4,0,62,0,17.5,0,70.3,0,12.5,0,19.1,0,,2
2005/1/4 4:15,10.4,0,60,0,17.5,0,69.8,0,12.5,0,19,0,,2
2005/1/4 4:30,10.4,0,61,0,17.5,0,69.5,0,12.6,0,18.9,0,,2
2005/1/4 4:45,10.3,0,62,0,17.4,0,69,0,12.6,0,18.8,0,,2
2005/1/4 5:00,10.3,0,63,0,17.3,0,68.7,0,12.6,0,18.7,0,,2
2005/1/4 5:15,10.1,0,62,0,17.3,0,68.5,0,12.7,0,18.6,0,,2
2005/1/4 5:30,10.1,0,59,0,17.3,0,68.2,0,12.7,0,18.5,0,,2
2005/1/4 5:45,10.1,0,58,0,17.3,0,67.9,0,12.7,0,18.4,0,,2
2005/1/4 6:00,9.9,0,59,0,17.3,0,67.6,0,12.8,0,18.3,0,,2
2005/1/4 6:15,9.9,0,58,0,17.2,0,67.4,0,12.8,0,18.2,0,,2
2005/1/4 6:30,9.7,0,58,0,17.2,0,67.1,0,12.8,0,18.2,0,,2
2005/1/4 6:45,9.7,0,57,0,17.2,0,66.8,0,12.8,0,18.1,0,,2
2005/1/4 7:00,9.6,0,56,0,17.2,0,66.5,0,12.9,0,18,0,,2
2005/1/4 7:15,9.6,0,55,0,17.1,0,66.4,0,12.9,0,17.9,0,,2
2005/1/4 7:30,9.5,0,54,0,17.1,0,66.1,0,12.9,0,17.9,0,,2
2005/1/4 7:45,9.4,0,54,0,17.1,0,65.7,0,13,0,17.9,0,,2
2005/1/4 8:00,9.4,0,53,0,17.1,0,65.6,0,13,0,17.8,0,,2
2005/1/4 8:15,9.6,0,53,0,17.1,0,65.4,0,13,0,17.8,0,,2
2005/1/4 8:30,9.4,0,54,0,17.1,0,65.3,0,13.1,0,17.7,0,,2
2005/1/4 8:45,9.4,0,51,0,17.3,0,66.7,0,13.1,0,17.7,0,,2
2005/1/4 9:00,9.2,0,50,0,17.7,0,69.4,0,13.1,0,17.6,0,,2
2005/1/4 9:15,9.4,0,48,0,17.7,0,69.6,0,12.5,0,17.6,0,,2
2005/1/4 9:30,9.4,0,46,0,17.7,0,69.2,0,11.8,0,17.8,0,,2
2005/1/4 9:45,9.6,0,48,0,17.6,0,69.1,0,11.8,0,19.6,0,,2
2005/1/4 10:00,9.9,0,47,0,17.5,0,68.2,0,11.9,0,19.4,0,,2
2005/1/4 10:15,9.9,0,48,0,17.5,0,68.3,0,11.9,0,19,0,,2
2005/1/4 10:30,9.7,0,49,0,17.5,0,67.9,0,11.8,0,18.7,0,,2
2005/1/4 10:45,9.5,0,51,0,17.4,0,67.9,0,11.9,0,18.4,0,,2
2005/1/4 11:00,9.2,0,54,0,17.3,0,67.6,0,11.9,0,18.2,0,,2
2005/1/4 11:15,8.8,0,55,0,17.3,0,67.4,0,11.9,0,18.1,0,,2
2005/1/4 11:30,8.6,0,53,0,17.2,0,67.4,0,11.9,0,18,0,,2
2005/1/4 11:45,8.6,0,52,0,17.1,0,67.1,0,12,0,17.9,0,,2
2005/1/4 12:00,8.8,0,52,0,17.1,0,66.8,0,12,0,17.8,0,,2
2005/1/4 12:15,8.6,0,50,0,17.1,0,66.6,0,12,0,17.7,0,,2
2005/1/4 12:30,8.3,0,44,0,17,0,66.4,0,12.1,0,17.6,0,,2
2005/1/4 12:45,8.2,0,37,0,17,0,66.4,0,12.1,0,17.6,0,,2
2005/1/4 13:00,8.3,0,35,0,17,0,66,0,12.1,0,17.5,0,,2
2005/1/4 13:15,8.4,0,34,0,17.2,0,65.3,0,12.2,0,17.5,0,,2
2005/1/4 13:30,8.3,0,34,0,17.4,0,65,0,12.2,0,17.4,0,,2
2005/1/4 13:45,8.4,0,37,0,17.7,0,64.1,0,12.2,0,17.4,0,,2
2005/1/4 14:00,8.3,0,37,0,17.8,0,63.7,0,12.3,0,17.4,0,,2
2005/1/4 14:15,8.1,0,40,0,17.8,0,63.5,0,12.3,0,17.5,0,,2
2005/1/4 14:30,8,0,40,0,17.9,0,63,0,12.3,0,17.7,0,,2
2005/1/4 14:45,8.1,0,40,0,17.7,0,63.3,0,12.4,0,17.9,0,,2
2005/1/4 15:00,8,0,41,0,17.4,0,64.1,0,12.4,0,18,0,,2
2005/1/4 15:15,7.9,0,42,0,17.3,0,64.2,0,12.4,0,18.1,0,,2
2005/1/4 15:30,8,0,42,0,17.3,0,64,0,12.4,0,18.1,0,,2
2005/1/4 15:45,7.8,0,42,0,17.2,0,63.8,0,12.5,0,17.9,0,,2
2005/1/4 16:00,7.4,0,43,0,17.1,0,63.7,0,12.5,0,17.8,0,,2
2005/1/4 16:15,7.4,0,43,0,17.2,0,63.5,0,12.5,0,17.7,0,,2
2005/1/4 16:30,7.4,0,41,0,17.1,0,63.4,0,12.5,0,17.6,0,,2
2005/1/4 16:45,7.4,0,41,0,17,0,63.4,0,12.6,0,17.5,0,,2
2005/1/4 17:00,7.2,0,42,0,17,0,63.2,0,12.6,0,17.5,0,,2
2005/1/4 17:15,7,0,41,0,17,0,63.1,0,12.6,0,17.4,0,,2
2005/1/4 17:30,6.8,0,43,0,16.9,0,63.1,0,12.6,0,17.3,0,,2
2005/1/4 17:45,6.8,0,44,0,16.9,0,63.1,0,12.7,0,17.3,0,,2
2005/1/4 18:00,6.8,0,42,0,16.9,0,62.9,0,12.7,0,17.3,0,,2
2005/1/4 18:15,7,0,41,0,16.8,0,63.1,0,12.7,0,17.2,0,,2
2005/1/4 18:30,6.9,0,45,0,16.8,0,63,0,12.7,0,17.2,0,,2
2005/1/4 18:45,6.8,0,45,0,16.8,0,62.8,0,12.7,0,17.2,0,,2
2005/1/4 19:00,6.5,0,43,0,16.8,0,62.8,0,12.8,0,17.1,0,,2
2005/1/4 19:15,6.6,0,45,0,16.7,0,62.7,0,12.8,0,17.1,0,,2
2005/1/4 19:30,6.5,0,47,0,16.8,0,62.5,0,12.8,0,17.1,0,,2
2005/1/4 19:45,6.4,0,43,0,16.7,0,62.4,0,12.8,0,17,0,,2
2005/1/4 20:00,6.4,0,42,0,16.7,0,62.4,0,12.8,0,17,0,,2
2005/1/4 20:15,6.5,0,46,0,16.7,0,60.2,0,12.8,0,17,0,,2
2005/1/4 20:30,6.5,0,46,0,17,0,60.2,0,12.9,0,17,0,,2
2005/1/4 20:45,6.5,0,43,0,17.3,0,61.3,0,12.3,0,16.9,0,,2
2005/1/4 21:00,6.6,0,43,0,17.6,0,62.4,0,12.4,0,16.9,0,,2
2005/1/4 21:15,6.6,0,43,0,17.6,0,63.8,0,12.4,0,17.2,0,,2
2005/1/4 21:30,6.6,0,41,0,18,0,65.9,0,12.4,0,19.5,0,,2
2005/1/4 21:45,6.6,0,41,0,18.1,0,65.5,0,12.4,0,20,0,,2
2005/1/4 22:00,6.5,0,43,0,18.1,0,65.1,0,12.4,0,19.6,0,,2
2005/1/4 22:15,6.5,0,42,0,18,0,64.4,0,12.5,0,21,0,,2
2005/1/4 22:30,6.3,0,41,0,18.1,0,64.8,0,12.5,0,21.3,0,,2
2005/1/4 22:45,6.4,0,41,0,18.1,0,65.6,0,12.5,0,20.6,0,,2
2005/1/4 23:00,6.4,0,41,0,18.1,0,64.8,0,12.5,0,20,0,,2
2005/1/4 23:15,6.5,0,42,0,18.1,0,64.1,0,12.5,0,19.7,0,,2
2005/1/4 23:30,6.4,0,44,0,18.1,0,64,0,12.5,0,19.6,0,,2
2005/1/4 23:45,6.5,0,45,0,18.1,0,63.7,0,12.5,0,19.5,0,,2
2005/1/5 0:00,6.4,0,45,0,18.2,0,63.4,0,12.6,0,19.4,0,,2
2005/1/5 0:15,6.2,0,44,0,18.2,0,62.9,0,12.6,0,19.2,0,,2
2005/1/5 0:30,6.4,0,45,0,18,0,62.4,0,12.6,0,19,0,,2
2005/1/5 0:45,6.3,0,45,0,17.8,0,61.8,0,12.6,0,18.9,0,,2
2005/1/5 1:00,6.3,0,45,0,17.7,0,61.2,0,12.2,0,18.8,0,,2
2005/1/5 1:15,6.3,0,43,0,17.6,0,61,0,12.2,0,18.6,0,,2
2005/1/5 1:30,6.3,0,45,0,17.6,0,60.9,0,11.8,0,18.4,0,,2
2005/1/5 1:45,6.3,0,42,0,17.5,0,60.8,0,11.9,0,18.2,0,,2
2005/1/5 2:00,6.4,0,41,0,17.6,0,62.1,0,11.9,0,18.5,0,,2
2005/1/5 2:15,6.5,0,46,0,17.6,0,64.6,0,11.9,0,18.6,0,,2
2005/1/5 2:30,6.6,0,44,0,17.5,0,63.9,0,12,0,18.5,0,,2
2005/1/5 2:45,6.7,0,39,0,17.5,0,63.2,0,12,0,18.9,0,,2
2005/1/5 3:00,6.7,0,39,0,17.4,0,62.6,0,12,0,19.1,0,,2
2005/1/5 3:15,6.8,0,40,0,17.4,0,62.3,0,12.1,0,19,0,,2
2005/1/5 3:30,7.1,0,45,0,17.3,0,61.9,0,12.1,0,18.9,0,,2
2005/1/5 3:45,6.8,0,44,0,17.3,0,61.3,0,12.1,0,18.8,0,,2
2005/1/5 4:00,6.8,0,56,0,17.3,0,61,0,12.2,0,18.6,0,,2
2005/1/5 4:15,6.7,0,62,0,17.2,0,61,0,12.2,0,18.5,0,,2
2005/1/5 4:30,6.4,0,65,0,17.2,0,60.4,0,12.2,0,18.4,0,,2
2005/1/5 4:45,6.7,0,69,0,17.2,0,60.1,0,12.3,0,18.3,0,,2
2005/1/5 5:00,6.6,0,69,0,17.2,0,60,0,12.3,0,18.1,0,,2
2005/1/5 5:15,6.3,0,69,0,17.1,0,60.2,0,12.3,0,18,0,,2
2005/1/5 5:30,6.5,0,69,0,17.1,0,59.6,0,12.3,0,18,0,,2
2005/1/5 5:45,6.8,0,70,0,17.1,0,59.3,0,12.4,0,17.9,0,,2
2005/1/5 6:00,6.7,0,69,0,17.1,0,59.5,0,12.4,0,17.7,0,,2
2005/1/5 6:15,6.7,0,67,0,17.1,0,59.5,0,12.5,0,17.7,0,,2
2005/1/5 6:30,6.8,0,64,0,17.1,0,59.2,0,12.5,0,17.7,0,,2
2005/1/5 6:45,6.8,0,64,0,17.1,0,59,0,12.5,0,17.6,0,,2
2005/1/5 7:00,6.8,0,65,0,17,0,59.1,0,12.5,0,17.5,0,,2
2005/1/5 7:15,6.8,0,68,0,17,0,59,0,12.6,0,17.5,0,,2
2005/1/5 7:30,6.8,0,67,0,17,0,58.9,0,12.6,0,17.5,0,,2
2005/1/5 7:45,6.8,0,65,0,17,0,58.6,0,12.6,0,17.4,0,,2
2005/1/5 8:00,6.9,0,62,0,16.9,0,58.4,0,12.6,0,17.3,0,,2
2005/1/5 8:15,7,0,57,0,16.9,0,58.5,0,12.7,0,17.3,0,,2
2005/1/5 8:30,7,0,59,0,17,0,58.2,0,12.7,0,17.3,0,,2
2005/1/5 8:45,7.1,0,58,0,17.6,0,60.8,0,12.7,0,17.3,0,,2
2005/1/5 9:00,7.1,0,57,0,17.6,0,60.5,0,12.3,0,17.2,0,,2